| time (UTC) | temp F | wind direction | speed knots | gust knots | rain 1hr in | rain 24hr in | rain mn in | humidity % | barometer mb |
| 20260507030840 | 54 | 176 | 1.7 | 2.6 | 0.00 | 0.13 | 0.13 | 99 | 1006.7 |
| 20260507025337 | 54 | 34 | 1.7 | 4.3 | 0.00 | 0.13 | 0.13 | 99 | 1006.4 |
| 20260507023834 | 54 | 233 | 0.0 | 3.5 | 0.00 | 0.13 | 0.13 | 99 | 1006.7 |
| 20260507022329 | 54 | 257 | 1.7 | 4.3 | 0.00 | 0.13 | 0.13 | 99 | 1006.8 |
| 20260507020825 | 55 | 99 | 0.0 | 3.5 | 0.00 | 0.13 | 0.13 | 99 | 1006.5 |
| 20260507015322 | 55 | 305 | 2.6 | 9.6 | 0.00 | 0.13 | 0.13 | 99 | 1006.7 |
| 20260507013817 | 54 | 63 | 0.0 | 7.8 | 0.00 | 0.13 | 0.13 | 99 | 1007.0 |
| 20260507012314 | 54 | 214 | 2.6 | 6.1 | 0.00 | 0.13 | 0.13 | 99 | 1006.9 |
| 20260507010814 | 54 | 90 | 4.3 | 6.1 | 0.00 | 0.13 | 0.13 | 99 | 1007.1 |
| 20260507005309 | 54 | 270 | 4.3 | 7.8 | 0.00 | 0.13 | 0.13 | 99 | 1007.4 |
| 20260507003806 | 54 | 263 | 2.6 | 8.7 | 0.00 | 0.13 | 0.13 | 99 | 1007.0 |
| 20260507002306 | 54 | 221 | 1.7 | 9.6 | 0.00 | 0.13 | 0.13 | 99 | 1007.1 |
| 20260507000802 | 54 | 233 | 4.3 | 13.9 | 0.00 | 0.13 | 0.13 | 99 | 1007.1 |
| 20260506235256 | 55 | 199 | 7.0 | 12.2 | 0.00 | 0.13 | 0.13 | 99 | 1007.3 |
| 20260506233754 | 55 | 209 | 4.3 | 8.7 | 0.00 | 0.13 | 0.13 | 99 | 1007.1 |
| 20260506232253 | 54 | 289 | 2.6 | 5.2 | 0.00 | 0.13 | 0.13 | 99 | 1007.1 |
| 20260506230751 | 53 | 194 | 2.6 | 7.0 | 0.02 | 0.13 | 0.13 | 99 | 1007.1 |
| 20260506225248 | 54 | 4 | 1.7 | 5.2 | 0.00 | 0.13 | 0.13 | 99 | 1007.0 |
| 20260506223743 | 53 | 23 | 1.7 | 11.3 | 0.02 | 0.12 | 0.12 | 99 | 1007.0 |
| 20260506222238 | 53 | 219 | 2.6 | 3.5 | 0.07 | 0.11 | 0.11 | 99 | 1006.9 |
| 20260506220737 | 53 | 101 | 2.6 | 7.8 | 0.09 | 0.09 | 0.09 | 99 | 1007.2 |
| 20260506215236 | 53 | 222 | 2.6 | 8.7 | 0.07 | 0.07 | 0.07 | 99 | 1007.5 |
| 20260506213734 | 53 | 270 | 2.6 | 7.8 | 0.00 | 0.06 | 0.06 | 99 | 1007.7 |
| 20260506212230 | 54 | 293 | 1.7 | 7.8 | 0.02 | 0.05 | 0.05 | 99 | 1007.8 |
| 20260506210725 | 54 | 274 | 4.3 | 6.1 | 0.00 | 0.04 | 0.04 | 99 | 1008.0 |
| 20260506205220 | 54 | 197 | 0.0 | 8.7 | 0.02 | 0.04 | 0.04 | 99 | 1008.1 |
| 20260506203718 | 54 | 206 | 2.6 | 6.1 | 0.02 | 0.04 | 0.04 | 98 | 1008.4 |
| 20260506202214 | 54 | 315 | 1.7 | 7.0 | 0.00 | 0.03 | 0.03 | 97 | 1008.1 |
| 20260506200711 | 55 | 265 | 3.5 | 12.2 | 0.00 | 0.03 | 0.03 | 96 | 1008.5 |
| 20260506195207 | 56 | 206 | 6.1 | 10.4 | 0.02 | 0.03 | 0.03 | 96 | 1008.5 |
| 20260506193704 | 56 | 90 | 1.7 | 6.1 | 0.09 | 0.03 | 0.03 | 95 | 1008.5 |
| 20260506192200 | 58 | 10 | 2.6 | 8.7 | 0.00 | 0.01 | 0.01 | 91 | 1008.4 |
| 20260506190656 | 59 | 166 | 7.8 | 13.0 | 0.00 | 0.01 | 0.01 | 87 | 1008.9 |
| 20260506185152 | 60 | 270 | 7.0 | 19.1 | 0.00 | 0.01 | 0.01 | 87 | 1008.8 |
| 20260506183649 | 59 | 225 | 5.2 | 11.3 | 0.00 | 0.01 | 0.01 | 87 | 1009.0 |
| 20260506182145 | 60 | 206 | 3.5 | 11.3 | 0.00 | 0.01 | 0.01 | 86 | 1009.1 |
| 20260506180643 | 60 | 188 | 8.7 | 13.0 | 0.00 | 0.01 | 0.01 | 86 | 1009.1 |
| 20260506175138 | 59 | 180 | 2.6 | 10.4 | 0.00 | 0.01 | 0.01 | 86 | 1009.5 |
| 20260506173637 | 60 | 201 | 10.4 | 11.3 | 0.00 | 0.01 | 0.01 | 85 | 1009.8 |
| 20260506172133 | 61 | 56 | 1.7 | 12.2 | 0.00 | 0.01 | 0.01 | 84 | 1010.0 |
| 20260506170631 | 63 | 232 | 4.3 | 6.1 | 0.00 | 0.01 | 0.01 | 81 | 1009.7 |
| 20260506165127 | 64 | 228 | 3.5 | 10.4 | 0.00 | 0.01 | 0.01 | 80 | 1010.0 |
| 20260506163623 | 62 | 323 | 3.5 | 11.3 | 0.00 | 0.01 | 0.01 | 84 | 1010.2 |
| 20260506162122 | 61 | 315 | 1.7 | 9.6 | 0.00 | 0.01 | 0.01 | 85 | 1010.5 |
| 20260506160619 | 62 | 86 | 1.7 | 11.3 | 0.00 | 0.01 | 0.01 | 83 | 1010.8 |
| 20260506155116 | 64 | 120 | 2.6 | 11.3 | 0.00 | 0.01 | 0.01 | 81 | 1010.9 |
| 20260506152329 | 62 | 250 | 5.2 | 13.0 | 0.00 | 0.01 | 0.01 | 84 | 1011.0 |
| 20260506150826 | 62 | 222 | 10.4 | 15.6 | 0.00 | 0.01 | 0.01 | 83 | 1011.2 |
| 20260506145322 | 61 | 207 | 3.5 | 13.0 | 0.00 | 0.01 | 0.01 | 85 | 1011.2 |
| 20260506143821 | 62 | 196 | 1.7 | 8.7 | 0.00 | 0.01 | 0.01 | 84 | 1011.0 |
| 20260506142319 | 61 | 206 | 2.6 | 7.8 | 0.00 | 0.01 | 0.01 | 86 | 1011.2 |
| 20260506140818 | 61 | 199 | 6.1 | 10.4 | 0.00 | 0.01 | 0.01 | 85 | 1010.8 |
| 20260506135314 | 60 | 341 | 3.5 | 10.4 | 0.00 | 0.01 | 0.01 | 86 | 1010.8 |
| 20260506133810 | 60 | 187 | 4.3 | 14.8 | 0.00 | 0.01 | 0.01 | 87 | 1011.1 |
| 20260506132307 | 61 | 178 | 3.5 | 8.7 | 0.00 | 0.01 | 0.01 | 86 | 1011.1 |
| 20260506130803 | 60 | 213 | 9.6 | 9.6 | 0.00 | 0.01 | 0.01 | 86 | 1011.2 |
| 20260506125304 | 59 | 290 | 0.0 | 8.7 | 0.00 | 0.01 | 0.01 | 88 | 1011.2 |
| 20260506123800 | 60 | 252 | 7.8 | 10.4 | 0.02 | 0.01 | 0.01 | 88 | 1011.1 |
| 20260506122258 | 59 | 215 | 7.8 | 12.2 | 0.00 | 0.00 | 0.00 | 90 | 1011.4 |
| 20260506120756 | 58 | 210 | 2.6 | 11.3 | 0.00 | 0.00 | 0.00 | 92 | 1011.4 |
| 20260506115255 | 57 | 243 | 8.7 | 16.5 | 0.00 | 0.00 | 0.00 | 93 | 1011.4 |
| 20260506113754 | 56 | 204 | 6.1 | 15.6 | 0.00 | 0.00 | 0.00 | 94 | 1011.5 |
| 20260506112251 | 56 | 277 | 2.6 | 16.5 | 0.00 | 0.00 | 0.00 | 94 | 1011.7 |
| 20260506110749 | 55 | 211 | 7.0 | 10.4 | 0.00 | 0.00 | 0.00 | 96 | 1011.5 |
| 20260506105245 | 55 | 251 | 3.5 | 9.6 | 0.00 | 0.00 | 0.00 | 95 | 1011.6 |
| 20260506103743 | 55 | 219 | 2.6 | 11.3 | 0.00 | 0.00 | 0.00 | 96 | 1011.4 |
| 20260506102242 | 55 | 166 | 0.0 | 9.6 | 0.00 | 0.00 | 0.00 | 96 | 1011.5 |
| 20260506100739 | 55 | 227 | 7.0 | 13.0 | 0.00 | 0.00 | 0.00 | 97 | 1011.2 |
| 20260506095237 | 55 | 200 | 9.6 | 12.2 | 0.00 | 0.00 | 0.00 | 97 | 1011.1 |
| 20260506093737 | 55 | 223 | 4.3 | 9.6 | 0.00 | 0.00 | 0.00 | 97 | 1011.2 |
| 20260506092235 | 55 | 204 | 8.7 | 12.2 | 0.00 | 0.00 | 0.00 | 97 | 1011.3 |
| 20260506090733 | 55 | 252 | 3.5 | 14.8 | 0.00 | 0.00 | 0.00 | 97 | 1011.3 |
| 20260506085228 | 55 | 227 | 5.2 | 9.6 | 0.00 | 0.00 | 0.00 | 97 | 1011.5 |
| 20260506083724 | 55 | 221 | 4.3 | 7.8 | 0.00 | 0.00 | 0.00 | 97 | 1011.6 |
| 20260506082220 | 54 | 197 | 7.0 | 7.0 | 0.00 | 0.00 | 0.00 | 97 | 1011.3 |
| 20260506080719 | 54 | 190 | 4.3 | 7.8 | 0.00 | 0.00 | 0.00 | 97 | 1011.6 |
| 20260506072211 | 55 | 206 | 2.6 | 5.2 | 0.00 | 0.00 | 0.00 | 95 | 1011.5 |
| 20260506070708 | 55 | 223 | 4.3 | 7.0 | 0.00 | 0.00 | 0.00 | 95 | 1011.5 |
| 20260506062200 | 55 | 297 | 1.7 | 7.8 | 0.00 | 0.00 | 0.00 | 94 | 1011.4 |
| 20260506060658 | 56 | 28 | 3.5 | 10.4 | 0.00 | 0.00 | 0.00 | 93 | 1011.5 |
| 20260506050649 | 57 | 183 | 2.6 | 11.3 | 0.00 | 0.00 | 0.00 | 90 | 1012.1 |
| 20260506043642 | 57 | 237 | 7.8 | 14.8 | 0.00 | 0.00 | 0.00 | 90 | 1011.9 |
| 20260506042142 | 57 | 214 | 7.0 | 16.5 | 0.00 | 0.00 | 0.00 | 90 | 1012.2 |
| 20260506040641 | 56 | 188 | 2.6 | 13.9 | 0.00 | 0.00 | 0.00 | 91 | 1012.1 |
| 20260506035137 | 55 | 221 | 4.3 | 11.3 | 0.00 | 0.01 | 0.01 | 92 | 1012.0 |
| 20260506033634 | 54 | 213 | 1.7 | 3.5 | 0.00 | 0.01 | 0.01 | 92 | 1011.9 |
| 20260506032131 | 54 | 253 | 6.1 | 10.4 | 0.00 | 0.01 | 0.01 | 91 | 1011.9 |